When you browse on this site, cookies collect data to enhance your experience and personalize the content and advertising you see.
Visit our Privacy Policy to learn more. By continuing to use the site, you agree to this use of cookies and data.
  • In Portugal
  • List of Countries
  • For 7 days
  • Water Temperature
  • Satellite Maps
  • Weather Map
  • Weather Widgets
  • user-avatar
    Login

    Hourly Weather Shkoder

    Today, 16 December, Sunday

    Time Temperature Precipitation Wind Pressure Humidity
    00:00 +7°C° 1.1 mm 2 mps 738 mmHg 93%
    01:00 +6°C° 0 mm 2 mps 738 mmHg 92%
    02:00 +6°C° 0.5 mm 2 mps 738 mmHg 92%
    03:00 +6°C° 0.5 mm 2 mps 738 mmHg 91%
    04:00 +6°C° 0.5 mm 2 mps 738 mmHg 90%
    05:00 +5°C° 0.2 mm 2 mps 738 mmHg 90%
    06:00 +5°C° 0.2 mm 2 mps 739 mmHg 89%
    07:00 +4°C° 0 mm 2 mps 739 mmHg 88%
    08:00 +5°C° 0 mm 2 mps 739 mmHg 85%
    09:00 +5°C° 0 mm 2 mps 740 mmHg 82%
    10:00 +5°C° 0 mm 2 mps 740 mmHg 79%
    11:00 +6°C° 0 mm 2 mps 740 mmHg 77%
    12:00 +6°C° 0 mm 2 mps 741 mmHg 74%
    13:00 +6°C° 0 mm 2 mps 740 mmHg 71%
    14:00 +5°C° 0 mm 2 mps 741 mmHg 73%
    15:00 +4°C° 0 mm 2 mps 741 mmHg 75%
    16:00 +3°C° 0 mm 2 mps 741 mmHg 78%
    17:00 +3°C° 0 mm 2 mps 741 mmHg 76%
    18:00 +2°C° 0 mm 2 mps 742 mmHg 75%
    19:00 +1°C° 0 mm 2 mps 742 mmHg 74%
    20:00 +2°C° 0 mm 2 mps 742 mmHg 71%
    21:00 +2°C° 0 mm 2 mps 742 mmHg 67%
    22:00 +2°C° 0 mm 2 mps 742 mmHg 64%
    23:00 +2°C° 0 mm 2 mps 742 mmHg 62%

    Tomorrow, 17 December, Monday

    Time Temperature Precipitation Wind Pressure Humidity
    00:00 +3°C° 0 mm 2 mps 742 mmHg 60%
    01:00 +4°C° 0 mm 1 mps 741 mmHg 58%
    02:00 +4°C° 0 mm 1 mps 741 mmHg 58%
    03:00 +4°C° 0 mm 2 mps 741 mmHg 58%
    04:00 +4°C° 0 mm 2 mps 740 mmHg 58%
    05:00 +4°C° 0.1 mm 2 mps 740 mmHg 59%
    06:00 +4°C° 0.1 mm 2 mps 740 mmHg 61%
    07:00 +5°C° 0.1 mm 2 mps 739 mmHg 63%
    08:00 +5°C° 0.6 mm 2 mps 739 mmHg 68%
    09:00 +5°C° 0.6 mm 2 mps 739 mmHg 73%
    10:00 +5°C° 0.6 mm 2 mps 739 mmHg 78%
    11:00 +4°C° 0.7 mm 3 mps 739 mmHg 81%
    12:00 +5°C° 0.7 mm 3 mps 738 mmHg 84%
    13:00 +5°C° 0.7 mm 3 mps 738 mmHg 87%
    14:00 +5°C° 1.1 mm 3 mps 737 mmHg 87%
    15:00 +4°C° 1.1 mm 4 mps 737 mmHg 88%
    16:00 +4°C° 1.1 mm 4 mps 737 mmHg 89%
    17:00 +3°C° 2.5 mm 5 mps 738 mmHg 89%
    18:00 +2°C° 2.5 mm 5 mps 738 mmHg 89%
    19:00 +2°C° 2.5 mm 6 mps 738 mmHg 89%
    20:00 +1°C° 0.9 mm 6 mps 739 mmHg 88%
    21:00 +1°C° 0.9 mm 5 mps 739 mmHg 87%
    22:00 +1°C° 0.9 mm 5 mps 740 mmHg 85%
    23:00 0°C° 0.2 mm 5 mps 740 mmHg 84%

    Day after tomorrow, 18 December, Tuesday

    Time Temperature Precipitation Wind Pressure Humidity
    00:00 0°C° 0.2 mm 5 mps 740 mmHg 84%
    01:00 -1°C° 0.2 mm 6 mps 740 mmHg 83%
    02:00 0°C° 0.1 mm 5 mps 740 mmHg 83%
    03:00 0°C° 0.1 mm 5 mps 741 mmHg 83%
    04:00 0°C° 0.1 mm 5 mps 741 mmHg 82%
    05:00 0°C° 0 mm 5 mps 741 mmHg 82%
    06:00 -1°C° 0 mm 5 mps 742 mmHg 82%
    07:00 -1°C° 0 mm 5 mps 742 mmHg 82%
    08:00 0°C° 0 mm 5 mps 743 mmHg 81%
    09:00 +1°C° 0 mm 5 mps 743 mmHg 81%
    10:00 +1°C° 0 mm 5 mps 743 mmHg 80%
    11:00 +2°C° 0 mm 5 mps 743 mmHg 81%
    12:00 +2°C° 0 mm 5 mps 743 mmHg 81%
    13:00 +4°C° 0 mm 4 mps 743 mmHg 82%
    14:00 +3°C° 0 mm 4 mps 743 mmHg 82%
    15:00 +3°C° 0 mm 4 mps 743 mmHg 82%
    16:00 +1°C° 0 mm 4 mps 743 mmHg 82%
    17:00 +1°C° 0 mm 4 mps 744 mmHg 83%
    18:00 0°C° 0 mm 4 mps 744 mmHg 83%
    19:00 0°C° 0 mm 4 mps 745 mmHg 83%
    20:00 0°C° 0 mm 4 mps 745 mmHg 83%
    21:00 -1°C° 0 mm 4 mps 745 mmHg 84%
    22:00 -1°C° 0 mm 4 mps 745 mmHg 84%
    23:00 0°C° 0 mm 3 mps 745 mmHg 84%

    19 December, Wednesday

    Time Temperature Precipitation Wind Pressure Humidity
    00:00 0°C° 0 mm 3 mps 745 mmHg 84%
    01:00 0°C° 0 mm 3 mps 745 mmHg 84%
    02:00 0°C° 0 mm 3 mps 745 mmHg 83%
    03:00 0°C° 0 mm 3 mps 745 mmHg 83%
    04:00 0°C° 0 mm 3 mps 745 mmHg 83%
    05:00 0°C° 0 mm 3 mps 746 mmHg 82%
    06:00 0°C° 0 mm 3 mps 746 mmHg 81%
    07:00 +1°C° 0 mm 2 mps 746 mmHg 80%
    08:00 +3°C° 0 mm 2 mps 746 mmHg 81%
    09:00 +4°C° 0 mm 2 mps 746 mmHg 82%
    10:00 +7°C° 0 mm 1 mps 746 mmHg 83%
    11:00 +8°C° 0 mm 1 mps 745 mmHg 83%
    12:00 +8°C° 0 mm 1 mps 745 mmHg 82%
    13:00 +8°C° 0 mm 0 mps 745 mmHg 82%
    14:00 +7°C° 0 mm 0 mps 745 mmHg 81%
    15:00 +6°C° 0 mm 0 mps 745 mmHg 80%
    16:00 +5°C° 0 mm 0 mps 745 mmHg 79%
    17:00 +5°C° 0 mm 1 mps 745 mmHg 78%
    18:00 +5°C° 0 mm 1 mps 745 mmHg 76%
    19:00 +5°C° 0 mm 1 mps 745 mmHg 74%
    20:00 +5°C° 0 mm 1 mps 746 mmHg 73%
    21:00 +5°C° 0 mm 1 mps 746 mmHg 72%
    22:00 +4°C° 0 mm 2 mps 746 mmHg 70%
    23:00 +4°C° 0 mm 2 mps 746 mmHg 70%

    20 December, Thursday

    Time Temperature Precipitation Wind Pressure Humidity
    00:00 +4°C° 0 mm 2 mps 746 mmHg 69%
    01:00 +4°C° 0 mm 2 mps 746 mmHg 68%
    02:00 +3°C° 0 mm 2 mps 746 mmHg 67%
    03:00 +3°C° 0 mm 2 mps 745 mmHg 67%
    04:00 +3°C° 0 mm 2 mps 745 mmHg 66%
    05:00 +3°C° 0 mm 2 mps 745 mmHg 65%
    06:00 +3°C° 0 mm 2 mps 746 mmHg 65%
    07:00 +3°C° 0 mm 2 mps 746 mmHg 64%
    08:00 +4°C° 0 mm 2 mps 746 mmHg 67%
    09:00 +6°C° 0 mm 2 mps 746 mmHg 71%
    10:00 +7°C° 0 mm 2 mps 746 mmHg 74%
    11:00 +8°C° 0 mm 2 mps 745 mmHg 77%
    12:00 +8°C° 0 mm 2 mps 745 mmHg 79%
    13:00 +8°C° 0 mm 3 mps 744 mmHg 81%
    14:00 +8°C° 0.1 mm 3 mps 744 mmHg 82%
    15:00 +8°C° 0.1 mm 3 mps 744 mmHg 83%
    16:00 +7°C° 0.1 mm 3 mps 744 mmHg 84%
    17:00 +7°C° 0.3 mm 3 mps 744 mmHg 84%
    18:00 +7°C° 0.3 mm 3 mps 744 mmHg 84%
    19:00 +7°C° 0.3 mm 3 mps 744 mmHg 85%
    20:00 +8°C° 0.8 mm 3 mps 744 mmHg 86%
    21:00 +8°C° 0.8 mm 3 mps 744 mmHg 87%
    22:00 +8°C° 0.8 mm 3 mps 743 mmHg 89%
    23:00 +8°C° 1.3 mm 3 mps 743 mmHg 91%

    21 December, Friday

    Time Temperature Precipitation Wind Pressure Humidity
    00:00 +8°C° 1.3 mm 3 mps 743 mmHg 92%
    01:00 +8°C° 1.3 mm 3 mps 743 mmHg 94%
    02:00 +8°C° 0.6 mm 3 mps 743 mmHg 94%
    03:00 +8°C° 0.6 mm 3 mps 743 mmHg 95%
    04:00 +8°C° 0.6 mm 2 mps 743 mmHg 95%
    05:00 +8°C° 0.2 mm 2 mps 743 mmHg 95%
    06:00 +8°C° 0.2 mm 2 mps 743 mmHg 95%
    07:00 +7°C° 0.2 mm 2 mps 744 mmHg 95%
    08:00 +8°C° 0.2 mm 2 mps 744 mmHg 94%
    09:00 +8°C° 0.2 mm 2 mps 744 mmHg 92%
    10:00 +9°C° 0.2 mm 2 mps 745 mmHg 91%
    11:00 +9°C° 0.1 mm 2 mps 745 mmHg 88%
    12:00 +10°C° 0.1 mm 2 mps 745 mmHg 85%
    13:00 +10°C° 0.1 mm 2 mps 744 mmHg 81%
    14:00 +9°C° 0 mm 2 mps 745 mmHg 83%
    15:00 +8°C° 0 mm 2 mps 745 mmHg 85%
    16:00 +7°C° 0 mm 2 mps 745 mmHg 86%
    17:00 +7°C° 0 mm 2 mps 746 mmHg 87%
    18:00 +6°C° 0 mm 2 mps 746 mmHg 87%
    19:00 +6°C° 0 mm 1 mps 746 mmHg 87%
    20:00 +6°C° 0 mm 1 mps 746 mmHg 88%
    21:00 +6°C° 0 mm 1 mps 746 mmHg 88%
    22:00 +4°C° 0 mm 2 mps 746 mmHg 88%
    23:00 +4°C° 0 mm 2 mps 746 mmHg 88%
    Show more